Regional Weather Roundup
Issued by NWS Charleston, SC

Current Version | Previous Version | Graphics & Text | Print | Product List | Glossary On
Versions: 1 2 3 4 5 6 7 8 9 10 11 12 13 14 15 16 17 18 19 20 21 22 23 24 25 26 27 28 29 30 31 32 33 34 35 36 37 38 39 40 41 42 43 44 45 46 47 48 49 50
000 ASUS42 KCHS 290713 RWRCHS REGIONAL WEATHER ROUNDUP NATIONAL WEATHER SERVICE CHARLESTON SC 300 AM EDT MON AUG 29 2016 NOTE: "FAIR" INDICATES FEW OR NO CLOUDS BELOW 12,000 FEET WITH NO SIGNIFICANT WEATHER AND/OR OBSTRUCTIONS TO VISIBILITY. NOT ALL STATIONS ARE QUALITY CONTROLLED. USE DATA WITH CAUTION... ESPECIALLY DEWPOINT OBSERVATIONS. SCZ027-030-031-034>040-042>050-290800- ...SOUTHEAST SOUTH CAROLINA... CITY SKY/WX TMP DP RH WIND PRES REMARKS N CHARLESTON PTCLDY 76 73 91 NE5 30.05F WATERFRONT PRK N/A 79 76 91 NE8 30.03F MOUNT PLEASANT FAIR 75 73 94 CALM 30.05F FOG JOHNS ISLAND FAIR 77 77 100 N3 30.05S PINOPOLIS N/A 79 75 89 E12 29.99F MONCKS CORNER FAIR 73 72 94 NE3 30.06S SUMMERVILLE FAIR 73 73 100 N3 30.08R BEAUFORT MCAS CLEAR 76 74 93 NE5 30.05F BEAUFORT ARPT FAIR 77 75 94 NE8 30.04F HILTON HEAD IS DRIZZLE 81 77 89 NE7 30.04F WALTERBORO SUNNY 73 73 100 NW3 30.07F ALLENDALE FAIR 75 73 94 N5 30.06F ...SOUTHERN MIDLANDS AND PEE DEE... CITY SKY/WX TMP DP RH WIND PRES REMARKS GEORGETOWN FAIR 73 73 100 CALM 30.07F KINGSTREE FAIR 73 70 88 NE3 30.08F ORANGEBURG CLEAR 76 73 91 NE5 30.08F BARNWELL NOT AVBL AIKEN FAIR 73 70 88 CALM 30.13F MANNING FAIR 73 70 88 NE3 30.09R COLUMBIA CLOUDY 80 70 71 NE3 30.09S SUMTER CLOUDY 75 70 85 NE5 30.07F FLORENCE PTCLDY 75 72 90 E8 30.09F MYRTLE BEACH CLOUDY 75 66 73 NE9 30.09F N MYRTLE BEACH CLOUDY 75 74 96 NE9 30.06F $$ GAZ063-065-086>088-099>101-113>116-118-119-134>141-150-290800- ...SOUTHEAST GEORGIA... CITY SKY/WX TMP DP RH WIND PRES REMARKS SAVANNAH ARPT CLEAR 76 73 91 NE7 30.04F HUNTER AAF CLEAR 76 76 100 NE5 30.01F FORT STEWART CLEAR 73 72 94 CALM 30.01F STATESBORO CLEAR 76 74 96 CALM 30.05F SYLVANIA NOT AVBL CLAXTON FAIR 73 73 100 CALM 30.05S FOG ...CSRA...CENTRAL AND FAR SOUTHEAST GEORGIA... CITY SKY/WX TMP DP RH WIND PRES REMARKS THOMSON CLEAR 75 73 96 MISG 30.14S AUGUSTA-BUSH CLOUDY 75 73 93 CALM 30.08S AUGUSTA-DANIEL CLOUDY 80 72 76 E3 30.09F SWAINSBORO FAIR 75 72 88 NE3 30.08S VIDALIA CLEAR 75 75 100 N3 30.06F EASTMAN FAIR 76 70 80 NE3 30.08S HAZLEHURST FAIR 76 73 89 CALM 30.04F ALMA CLEAR 73 71 93 NE3 30.03F WAYCROSS N/A 73 73 100 CALM 30.02F JESUP FAIR 75 75 100 NE3 30.03F BAXLEY FAIR 75 75 100 NE3 30.04S BRUNSWICK CLEAR 73 73 100 CALM 30.02S SAINT SIMONS PTCLDY 81 75 82 E9 30.00F $$ SCZ027-028-034-036>038-045-046-048>050-GAZ119-141-290800- ...LAKE AND SUPPLEMENTAL COASTAL OBSERVATIONS... STATION/POSITION TIME TEMP WIND PRES WAVE SWELL AIR SEA DIR/SP/G HT/PER HT/PER/DIR (UTC) (F) (DEG/KT/KT) (MB) (FT/S) (FT/S/D) WINYAH BAY NOT AVBL LAKE MURRAY 0600 80 30/ 2/ 5 1019.0S ACE BASIN NERRS NOT AVBL FORT PULASKI 0600 83 85 60/ 11/ 12 1017.6F SAPELO ISLAND 0600 81 70/ 5 1017.0S $$ ANZ835-935-AMZ111-154-330-350-352-354-370-450-454-472-290800- ...C-MAN AND BUOY OBSERVATIONS... STATION/POSITION TIME TEMP WIND PRES WAVE SWELL AIR SEA DIR/SP/G HT/PER HT/PER/DIR (UTC) (F) (DEG/KT/KT) (MB) (FT/S) (FT/S/D) BUOY 41004 0650 83 85 70/ 8/ 10 1016.8F 3/ 7 3/130/ 7 BUOY 41008 0650 83 85 80/ 12/ 14 1015.9F 4/ 8 3/140/ 8 FOLLY BEACH CMAN 0700 79 10/ 11/ 12 1017.6F CAPERS NEARSHORE 0608 81 84 40/ 10/ 14 1017.3F FRIPP NEARSHORE 0608 82 85 100/ 14/ 17 1016.6F STATION/POSITION TIME TEMP WIND PRES WAVE SWELL AIR SEA DIR/SP/G HT/PER HT/PER/DIR (UTC) (F) (DEG/KT/KT) (MB) (FT/S) (FT/S/D) 5E ST. MARYS GA 0601 85 N/A 4/ 4 2/100/15 FRYING PAN BUOY 0600 83 84 70/ 8/ 10 1017.1F BUOY 41025 0650 82 84 80/ 14/ 16 1017.9F 5/14 3/130/14 CAPE LOOKOUT NC 0700 80 360/ 7/ 8 1017.8F BUOY 41002 0650 82 84 10/ 10/ 12 1015.1F 7/ 9 7/ 80/ 9 BUOY 41010 NOT AVBL ST AUGUSTINE FL 0700 83 84 90/ 13/ 14 1015.8F $$

USA.gov is the U.S. government's official web portal to all federal, state and local government web resources and services.